Location: DARK SKY Beskydy - Park tmavé oblohy, www.darkskybeskydy.cz
(49.4926°N, 18.5016°E)
Time: 08:39:22
(UTC+01:00)

BlueWalker 3 - Pass Details

Date: 08 December 2022
Orbit: 499 x 517 km, 53.2° (Epoch: 29 January)

Event Time Altitude Azimuth Distance (km) Brightness Sun altitude
Rises 18:24:10 0° 293° (WNW) 2,627 6.5 -24.5°
Reaches altitude 10° 18:26:28 10° 286° (WNW) 1,734 5.5 -24.8°
Maximum altitude 18:30:08 39° 217° (SW) 774 3.1 -25.4°
Enters shadow 18:30:10 39° 215° (SW) 774 3.1 -25.4°
